Weather History for Pittsburgh, PA

Change the Weather History Date:

Sunday, November 13, 2011

  Actual Average Record
Temperature  
Mean Temperature 56 °F 44 °F  
Max Temperature 64 °F 52 °F 73 °F (1989)
Min Temperature 48 °F 36 °F 13 °F (1911)
Degree Days  
Heating Degree Days 9 21  
Month to date heating degree days 230 247  
Since 1 July heating degree days 689 748  
Cooling Degree Days 0 0  
Month to date cooling degree days 0 0  
Year to date cooling degree days 1009 736  
Growing Degree Days 6 (Base 50)    
Moisture  
Dew Point 33 °F    
Average Humidity 37    
Maximum Humidity 48    
Minimum Humidity 26    
Precipitation  
Precipitation 0.00 in 0.10 in 0.91 in (1993)
Month to date precipitation 0.10 1.32  
Year to date precipitation 38.12 33.43  
Snow  
Snow 0.00 in 0.00 in 2.50 in (1995)
Month to date snowfall T 0.6  
Since 1 July snowfall 1.6 1.0  
Snow Depth 0.00 in    
Sea Level Pressure  
Sea Level Pressure 29.89 in    
Wind  
Wind Speed 12 mph (SSW)    
Max Wind Speed 23 mph    
Max Gust Speed 31 mph    
Visibility 10 miles    
Events      
T = Trace of Precipitation, MM = Missing Value Source: NWS Daily Summary

Daily Weather History Graph

Daily Weather History Graph

Search for Another Location

Airport:

Trip Planner

Search our weather history database for the weather conditions in past years. The results will help you decide how hot, cold, wet, or windy it might be!

Date:

Astronomy

Nov. 13, 2011 Rise Set
Actual Time 7:04 AM EST 5:05 PM EST
Civil Twilight 6:35 AM EST 5:34 PM EST
Nautical Twilight 6:02 AM EST 6:07 PM EST
Astronomical Twilight 5:30 AM EST 6:39 PM EST
Moon 7:12 PM EST (11/13) 9:36 AM EST (11/13)
Length of Visible Light 10h 59m
Length of Day
10h 00m
Waning Gibbous, 93% of the Moon is Illuminated
Nov 13
Waning Gibbous
Nov 18
Last Quarter
Nov 25
New
Dec 2
First Quarter
Dec 10
Full

Hourly Weather History & Observations

Time (EST) Temp. Dew Point Humidity Pressure Visibility Wind Dir Wind Speed Gust Speed Precip Events Conditions
12:51 AM 50.0 °F 26.1 °F 39% 30.01 in 10.0 mi South 3.5 mph - N/A   Overcast
1:51 AM 52.0 °F 24.1 °F 34% 30.01 in 10.0 mi South 5.8 mph - N/A   Overcast
2:51 AM 51.1 °F 24.1 °F 35% 30.01 in 10.0 mi South 5.8 mph - N/A   Overcast
3:51 AM 48.9 °F 24.1 °F 38% 30.01 in 10.0 mi South 6.9 mph - N/A   Mostly Cloudy
4:51 AM 51.1 °F 21.0 °F 31% 30.00 in 10.0 mi South 8.1 mph - N/A   Scattered Clouds
5:51 AM 51.1 °F 21.0 °F 31% 30.00 in 10.0 mi SSW 11.5 mph - N/A   Mostly Cloudy
6:51 AM 53.1 °F 21.0 °F 29% 29.97 in 10.0 mi SSW 12.7 mph 17.3 mph N/A   Mostly Cloudy
7:51 AM 54.0 °F 21.0 °F 28% 29.98 in 10.0 mi SSW 9.2 mph - N/A   Mostly Cloudy
8:51 AM 55.9 °F 21.9 °F 27% 29.97 in 10.0 mi SSW 15.0 mph 25.3 mph N/A   Clear
9:51 AM 57.9 °F 27.0 °F 31% 29.94 in 10.0 mi SSW 13.8 mph 24.2 mph N/A   Mostly Cloudy
10:51 AM 60.1 °F 32.0 °F 35% 29.92 in 10.0 mi SW 19.6 mph 28.8 mph N/A   Overcast
11:51 AM 60.1 °F 34.0 °F 38% 29.91 in 10.0 mi SSW 17.3 mph 26.5 mph N/A   Overcast
12:51 PM 60.1 °F 36.0 °F 41% 29.88 in 10.0 mi SSW 10.4 mph 21.9 mph N/A   Overcast
1:51 PM 61.0 °F 37.9 °F 42% 29.83 in 10.0 mi South 17.3 mph 27.6 mph N/A   Overcast
2:51 PM 62.6 °F 39.2 °F 42% 29.79 in 10.0 mi SSW 13.8 mph 25.3 mph N/A   Mostly Cloudy
3:51 PM 64.4 °F 41.0 °F 42% 29.79 in 10.0 mi SSW 18.4 mph 27.6 mph N/A   Scattered Clouds
4:51 PM 63.0 °F 41.0 °F 45% 29.80 in 10.0 mi SSW 13.8 mph 20.7 mph N/A   Mostly Cloudy
5:51 PM 62.1 °F 39.9 °F 44% 29.78 in 10.0 mi South 12.7 mph 20.7 mph N/A   Scattered Clouds
6:51 PM 61.0 °F 39.9 °F 46% 29.78 in 10.0 mi South 10.4 mph 20.7 mph N/A   Mostly Cloudy
7:51 PM 62.1 °F 41.0 °F 46% 29.83 in 10.0 mi WSW 9.2 mph 20.7 mph N/A   Overcast
8:51 PM 62.1 °F 41.0 °F 46% 29.81 in 10.0 mi SSW 10.4 mph 24.2 mph N/A   Overcast
9:51 PM 62.1 °F 42.1 °F 48% 29.82 in 10.0 mi SSW 13.8 mph 21.9 mph N/A   Scattered Clouds
10:51 PM 62.1 °F 42.1 °F 48% 29.81 in 10.0 mi SSW 11.5 mph 20.7 mph N/A   Partly Cloudy
11:51 PM 62.1 °F 43.0 °F 50% 29.82 in 10.0 mi SSW 12.7 mph 21.9 mph N/A   Mostly Cloudy